H1 CPF 2 NER 2022 1 12 9 012 01 glonass143 H2 2007501 9143 46805 2022 1 12 0 0 0 2022 1 15 23 45 0 900 1 1 0 0 0 1 H9 10 0 59591 0.00000 0 -6493326.679 -8889183.446 23017056.749 10 0 59591 900.00000 0 -4574977.021 -10945902.113 22587266.938 10 0 59591 1800.00000 0 -2862549.945 -13075625.763 21719102.733 10 0 59591 2700.00000 0 -1387510.644 -15216961.790 20429360.646 10 0 59591 3600.00000 0 -169436.149 -17304970.693 18743017.466 10 0 59591 4500.00000 0 784577.736 -19273749.874 16692752.215 10 0 59591 5400.00000 0 1479978.169 -21059077.009 14318318.587 10 0 59591 6300.00000 0 1934283.788 -22601003.091 11665779.254 10 0 59591 7200.00000 0 2176100.325 -23846286.875 8786616.212 10 0 59591 8100.00000 0 2243665.315 -24750568.758 5736733.917 10 0 59591 9000.00000 0 2182983.791 -25280192.653 2575374.217 10 0 59591 9900.00000 0 2045634.208 -25413598.906 -636035.739 10 0 59591 10800.00000 0 1886338.065 -25142229.197 -3835080.029 10 0 59591 11700.00000 0 1760396.772 -24470904.839 -6959571.206 10 0 59591 12600.00000 0 1721105.144 -23417662.075 -9948763.896 10 0 59591 13500.00000 0 1817251.945 -22013050.934 -12744540.528 10 0 59591 14400.00000 0 2090814.291 -20298926.870 -15292545.533 10 0 59591 15300.00000 0 2574944.395 -18326785.862 -17543245.384 10 0 59591 16200.00000 0 3292334.761 -16155712.798 -19452893.604 10 0 59591 17100.00000 0 4254031.817 -13850029.140 -20984381.909 10 0 59591 18000.00000 0 5458748.904 -11476738.386 -22107960.965 10 0 59591 18900.00000 0 6892708.471 -9102876.022 -22801817.059 10 0 59591 19800.00000 0 8530020.998 -6792874.382 -23052493.835 10 0 59591 20700.00000 0 10333585.562 -4606052.055 -22855151.254 10 0 59591 21600.00000 0 12256475.098 -2594331.868 -22213657.097 10 0 59591 22500.00000 0 14243749.114 -800281.795 -21140509.483 10 0 59591 23400.00000 0 16234618.601 744440.446 -19656592.009 10 0 59591 24300.00000 0 18164873.160 2020175.427 -17790766.305 10 0 59591 25200.00000 0 19969469.263 3019838.524 -15579309.780 10 0 59591 26100.00000 0 21585171.646 3748962.138 -13065209.410 10 0 59591 27000.00000 0 22953137.480 4225203.361 -10297325.137 10 0 59591 27900.00000 0 24021335.256 4477339.168 -7329439.035 10 0 59591 28800.00000 0 24746696.994 4543792.755 -4219208.834 10 0 59591 29700.00000 0 25096913.600 4470754.386 -1027046.230 10 0 59591 30600.00000 0 25051798.059 4309977.177 2185058.016 10 0 59591 31500.00000 0 24604159.303 4116341.827 5354738.955 10 0 59591 32400.00000 0 23760150.173 3945294.046 8420468.663 10 0 59591 33300.00000 0 22539074.953 3850263.657 11322750.016 10 0 59591 34200.00000 0 20972664.668 3880174.897 14005269.649 10 0 59591 35100.00000 0 19103850.561 4077153.521 16415987.795 10 0 59591 36000.00000 0 16985087.034 4474527.808 18508144.103 10 0 59591 36900.00000 0 14676294.036 5095208.054 20241160.279 10 0 59591 37800.00000 0 12242504.472 5950513.196 21581422.618 10 0 59591 38700.00000 0 9751314.195 7039494.427 22502929.925 10 0 59591 39600.00000 0 7270240.158 8348784.868 22987794.805 10 0 59591 40500.00000 0 4864095.822 9852982.474 23026589.181 10 0 59591 41400.00000 0 2592491.942 11515551.245 22618527.647 10 0 59591 42300.00000 0 507565.750 13290204.129 21771485.182 10 0 59591 43200.00000 0 -1347968.132 15122711.126 20501848.715 10 0 59591 44100.00000 0 -2942364.939 16953058.203 18834204.938 10 0 59591 45000.00000 0 -4255931.558 18717867.851 16800869.791 10 0 59591 45900.00000 0 -5281598.646 20352980.946 14441267.978 10 0 59591 46800.00000 0 -6024959.884 21796092.493 11801173.693 10 0 59591 47700.00000 0 -6503777.422 22989331.084 8931826.642 10 0 59591 48600.00000 0 -6746974.910 23881673.909 5888939.955 10 0 59591 49500.00000 0 -6793161.188 24431095.628 2731618.916 10 0 59591 50400.00000 0 -6688747.442 24606360.248 -478788.415 10 0 59591 51300.00000 0 -6485738.096 24388379.984 -3679886.131 10 0 59591 52200.00000 0 -6239289.582 23771083.174 -6809447.313 10 0 59591 53100.00000 0 -6005141.085 22761753.993 -9806628.367 10 0 59591 54000.00000 0 -5837026.893 21380829.003 -12613156.677 10 0 59591 54900.00000 0 -5784180.774 19661158.559 -15174467.823 10 0 59591 55800.00000 0 -5889038.819 17646763.659 -17440769.725 10 0 59591 56700.00000 0 -6185238.746 15391140.122 -19368012.722 10 0 59591 57600.00000 0 -6696000.953 12955180.879 -20918746.636 10 0 59591 58500.00000 0 -7432960.372 10404803.169 -22062848.215 10 0 59591 59400.00000 0 -8395499.041 7808379.552 -22778105.071 10 0 59591 60300.00000 0 -9570608.148 5234079.619 -23050645.161 10 0 59591 61200.00000 0 -10933285.971 2747232.857 -22875203.787 10 0 59591 62100.00000 0 -12447455.585 407821.948 -22255223.318 10 0 59591 63000.00000 0 -14067364.458 -1731789.935 -21202783.928 10 0 59591 63900.00000 0 -15739407.710 -3628803.969 -19738366.837 10 0 59591 64800.00000 0 -17404299.117 -5251522.820 -17890454.675 10 0 59591 65700.00000 0 -18999499.234 -6580417.185 -15694976.621 10 0 59591 66600.00000 0 -20461799.084 -7608678.515 -13194608.999 10 0 59591 67500.00000 0 -21729951.253 -8342236.278 -10437944.763 10 0 59591 68400.00000 0 -22747238.041 -8799240.516 -7478547.923 10 0 59591 69300.00000 0 -23463868.805 -9009032.860 -4373911.338 10 0 59591 70200.00000 0 -23839105.721 -9010650.676 -1184338.259 10 0 59591 71100.00000 0 -23843028.522 -8850928.680 2028230.461 10 0 59591 72000.00000 0 -23457863.877 -8582279.165 5201420.327 10 0 59591 72900.00000 0 -22678823.460 -8260245.542 8273634.637 10 0 59591 73800.00000 0 -21514415.335 -7940933.281 11185249.680 10 0 59591 74700.00000 0 -19986215.479 -7678427.318 13879770.217 10 0 59591 75600.00000 0 -18128108.835 -7522305.403 16304922.927 10 0 59591 76500.00000 0 -15985031.406 -7515352.577 18413666.823 10 0 59591 77400.00000 0 -13611265.684 -7691573.340 20165101.371 10 0 59591 78300.00000 0 -11068360.065 -8074585.395 21525255.298 10 0 59591 79200.00000 0 -8422758.345 -8676462.777 22467741.440 10 0 59591 80100.00000 0 -5743237.228 -9497077.339 22974265.486 10 0 59591 81000.00000 0 -3098257.508 -10523966.741 23034979.341 10 0 59591 81900.00000 0 -553337.901 -11732735.213 22648672.569 10 0 59591 82800.00000 0 1831440.338 -13087971.146 21822798.282 10 0 59591 83700.00000 0 4003695.482 -14544644.112 20573332.833 10 0 59591 84600.00000 0 5920681.104 -16049923.881 18924471.536 10 0 59591 85500.00000 0 7550815.895 -17545346.215 16908165.731 10 0 59592 0.00000 0 8874744.594 -18969235.496 14563509.570 10 0 59592 900.00000 0 9885887.182 -20259283.981 11935986.320 10 0 59592 1800.00000 0 10590452.333 -21355177.922 9076591.335 10 0 59592 2700.00000 0 11006917.616 -22201162.853 6040843.949 10 0 59592 3600.00000 0 11164997.110 -22748438.002 2887710.255 10 0 59592 4500.00000 0 11104141.268 -22957279.301 -321543.501 10 0 59592 5400.00000 0 10871632.911 -22798800.774 -3524544.203 10 0 59592 6300.00000 0 10520360.492 -22256279.194 -6659028.204 10 0 59592 7200.00000 0 10106363.528 -21325985.307 -9664056.388 10 0 59592 8100.00000 0 9686254.871 -20017485.739 -12481203.681 10 0 59592 9000.00000 0 9314629.674 -18353401.977 -15055699.277 10 0 59592 9900.00000 0 9041571.417 -16368635.933 -17337494.836 10 0 59592 10800.00000 0 8910361.166 -14109093.922 -19282239.569 10 0 59592 11700.00000 0 8955487.460 -11629962.047 -20852143.202 10 0 59592 12600.00000 0 9201041.352 -8993604.769 -22016710.016 10 0 59592 13500.00000 0 9659564.731 -6267174.032 -22753330.041 10 0 59592 14400.00000 0 10331400.826 -3520028.235 -23047716.244 10 0 59592 15300.00000 0 11204574.564 -821068.207 -22894179.568 10 0 59592 16200.00000 0 12255208.116 1763899.546 -22295736.891 10 0 59592 17100.00000 0 13448454.517 4174663.310 -21264050.003 10 0 59592 18000.00000 0 14739910.409 6358867.080 -19819196.967 10 0 59592 18900.00000 0 16077448.856 8273938.813 -17989280.309 10 0 59592 19800.00000 0 17403395.539 9888606.847 -15809879.535 10 0 59592 20700.00000 0 18656957.037 11183942.378 -13323358.536 10 0 59592 21600.00000 0 19776799.282 12153885.840 -10578041.167 10 0 59592 22500.00000 0 20703667.774 12805236.586 -7627270.920 10 0 59592 23400.00000 0 21382939.287 13157107.667 -4528373.043 10 0 59592 24300.00000 0 21766997.500 13239870.092 -1341539.372 10 0 59592 25200.00000 0 21817332.391 13093632.293 1871342.276 10 0 59592 26100.00000 0 21506274.749 12766320.062 5047891.020 10 0 59592 27000.00000 0 20818292.539 12311438.999 8126444.494 10 0 59592 27900.00000 0 19750794.286 11785614.723 11047255.358 10 0 59592 28800.00000 0 18314405.383 11246015.313 13753649.265 10 0 59592 29700.00000 0 16532705.353 10747765.159 16193121.856 10 0 59592 30600.00000 0 14441436.597 10341459.568 18318353.751 10 0 59592 31500.00000 0 12087217.219 10070884.938 20088124.130 10 0 59592 32400.00000 0 9525811.030 9971040.520 21468105.812 10 0 59592 33300.00000 0 6820026.044 10066544.961 22431526.996 10 0 59592 34200.00000 0 4037328.134 10370494.602 22959687.442 10 0 59592 35100.00000 0 1247267.999 10883821.653 23042319.636 10 0 59592 36000.00000 0 -1481172.760 11595179.434 22677788.278 10 0 59592 36900.00000 0 -4082207.346 12481360.013 21873124.312 10 0 59592 37800.00000 0 -6495733.370 13508227.355 20643892.717 10 0 59592 38700.00000 0 -8669584.062 14632127.657 19013896.155 10 0 59592 39600.00000 0 -10561448.360 15801718.488 17014719.619 10 0 59592 40500.00000 0 -12140380.873 16960140.757 14685124.129 10 0 59592 41400.00000 0 -13387839.515 18047442.933 12070300.421 10 0 59592 42300.00000 0 -14298208.049 19003155.979 9220996.411 10 0 59592 43200.00000 0 -14878782.325 19768910.822 6192534.808 10 0 59592 44100.00000 0 -15149221.352 20290987.943 3043739.592 10 0 59592 45000.00000 0 -15140486.830 20522691.164 -164207.757 10 0 59592 45900.00000 0 -14893316.505 20426444.815 -3368959.850 10 0 59592 46800.00000 0 -14456296.363 19975524.928 -6508219.211 10 0 59592 47700.00000 0 -13883613.830 19155350.383 -9520953.995 10 0 59592 48600.00000 0 -13232587.685 17964278.588 -12348589.319 10 0 59592 49500.00000 0 -12561079.840 16413871.034 -14936150.445 10 0 59592 50400.00000 0 -11924899.106 14528616.686 -17233334.970 10 0 59592 51300.00000 0 -11375307.258 12345123.916 -19195492.912 10 0 59592 52200.00000 0 -10956733.205 9910814.054 -20784495.518 10 0 59592 53100.00000 0 -10704792.105 7282170.675 -21969475.924 10 0 59592 54000.00000 0 -10644693.137 4522617.105 -22727427.575 10 0 59592 54900.00000 0 -10790103.173 1700110.134 -23043649.108 10 0 59592 55800.00000 0 -11142514.180 -1115450.318 -22912027.423 10 0 59592 56700.00000 0 -11691140.987 -3854888.392 -22335153.829 10 0 59592 57600.00000 0 -12413353.668 -6452386.101 -21324271.257 10 0 59592 58500.00000 0 -13275626.354 -8847974.901 -19899053.716 10 0 59592 59400.00000 0 -14234962.560 -10989782.252 -18087222.312 10 0 59592 60300.00000 0 -15240737.079 -12835940.661 -15924005.185 10 0 59592 61200.00000 0 -16236876.963 -14356080.621 -13451451.768 10 0 59592 62100.00000 0 -17164289.715 -15532346.359 -10717614.514 10 0 59592 63000.00000 0 -17963436.384 -16359893.198 -7775613.896 10 0 59592 63900.00000 0 -18576940.977 -16846846.957 -4682604.909 10 0 59592 64800.00000 0 -18952126.001 -17013728.447 -1498665.223 10 0 59592 65700.00000 0 -19043366.950 -16892368.557 1714373.197 10 0 59592 66600.00000 0 -18814166.166 -16524360.748 4894125.938 10 0 59592 67500.00000 0 -18238858.292 -15959117.271 7978867.852 10 0 59592 68400.00000 0 -17303875.054 -15251611.927 10908730.845 10 0 59592 69300.00000 0 -16008515.729 -14459905.241 13626864.243 10 0 59592 70200.00000 0 -14365190.365 -13642556.871 16080535.289 10 0 59592 71100.00000 0 -12399124.943 -12856034.541 18222148.615 10 0 59592 72000.00000 0 -10147540.167 -12152228.648 20010165.225 10 0 59592 72900.00000 0 -7658337.378 -11576177.031 21409903.757 10 0 59592 73800.00000 0 -4988345.451 -11164095.321 22394209.090 10 0 59592 74700.00000 0 -2201200.763 -10941795.360 22943975.937 10 0 59592 75600.00000 0 635052.803 -10923557.892 23048517.813 10 0 59592 76500.00000 0 3450545.287 -11111506.703 22705774.588 10 0 59592 77400.00000 0 6176237.467 -11495510.528 21922354.697 10 0 59592 78300.00000 0 8746544.006 -12053617.084 20713411.061 10 0 59592 79200.00000 0 11101815.082 -12753001.375 19102352.679 10 0 59592 80100.00000 0 13190574.304 -13551388.986 17120396.879 10 0 59592 81000.00000 0 14971420.649 -14398895.105 14805970.148 10 0 59592 81900.00000 0 16414515.898 -15240202.433 12203968.315 10 0 59592 82800.00000 0 17502595.954 -16016986.675 9364889.796 10 0 59592 83700.00000 0 18231464.301 -16670487.564 6343858.105 10 0 59592 84600.00000 0 18609947.332 -17144116.886 3199552.283 10 0 59592 85500.00000 0 18659313.890 -17385993.059 -6933.966 10 0 59593 0.00000 0 18412183.942 -17351294.595 -3213281.802 10 0 59593 900.00000 0 17910972.797 -17004332.100 -6357163.607 10 0 59593 1800.00000 0 17205937.427 -16320250.402 -9377457.522 10 0 59593 2700.00000 0 16352907.646 -15286287.737 -12215441.711 10 0 59593 3600.00000 0 15410798.836 -13902537.711 -14815940.134 10 0 59593 4500.00000 0 14439011.846 -12182180.839 -17128398.715 10 0 59593 5400.00000 0 13494830.348 -10151174.839 -19107870.388 10 0 59593 6300.00000 0 12630925.888 -7847415.637 -20715889.726 10 0 59593 7200.00000 0 11893076.078 -5319403.416 -21921220.194 10 0 59593 8100.00000 0 11318192.142 -2624468.644 -22700459.762 10 0 59593 9000.00000 0 10932738.771 173368.625 -23038493.473 10 0 59593 9900.00000 0 10751612.560 3005817.551 -22928784.535 10 0 59593 10800.00000 0 10777525.874 5802913.438 -22373498.675 10 0 59593 11700.00000 0 11000921.679 8495685.427 -21383459.577 10 0 59593 12600.00000 0 11400422.545 11018784.653 -19977936.467 10 0 59593 13500.00000 0 11943794.548 13312964.328 -18184267.972 10 0 59593 14400.00000 0 12589385.208 15327309.371 -16037329.473 10 0 59593 15300.00000 0 13287974.596 17021123.497 -13578854.215 10 0 59593 16200.00000 0 13984961.359 18365396.062 -10856621.188 10 0 59593 17100.00000 0 14622791.234 19343788.448 -7923525.465 10 0 59593 18000.00000 0 15143525.327 19953099.738 -4836549.100 10 0 59593 18900.00000 0 15491439.449 20203193.384 -1655652.679 10 0 59593 19800.00000 0 15615544.463 20116389.093 1557390.767 10 0 59593 20700.00000 0 15471920.834 19726346.606 4740196.460 10 0 59593 21600.00000 0 15025768.471 19076489.403 7830979.596 10 0 59593 22500.00000 0 14253084.899 18218035.583 10769754.333 10 0 59593 23400.00000 0 13141900.560 17207719.588 13499496.506 10 0 59593 24300.00000 0 11693018.647 16105301.216 15967247.568 10 0 59593 25200.00000 0 9920227.676 14970967.027 18125138.513 10 0 59593 26100.00000 0 7849977.125 13862733.520 19931314.240 10 0 59593 27000.00000 0 5520528.789 12833961.057 21350740.980 10 0 59593 27900.00000 0 2980618.221 11931082.581 22355881.752 10 0 59593 28800.00000 0 287680.986 11191642.041 22927227.320 10 0 59593 29700.00000 0 -2494283.683 10642724.289 23053672.939 10 0 59593 30600.00000 0 -5297124.355 10299841.807 22732733.920 10 0 59593 31500.00000 0 -8051124.998 10166324.649 21970595.980 10 0 59593 32400.00000 0 -10687662.558 10233238.908 20781999.266 10 0 59593 33300.00000 0 -13141825.289 10479837.143 19189957.888 10 0 59593 34200.00000 0 -15354883.942 10874521.954 17225319.796 10 0 59593 35100.00000 0 -17276513.862 11376282.426 14926174.792 10 0 59593 36000.00000 0 -18866676.085 11936543.295 12337121.315 10 0 59593 36900.00000 0 -20097079.332 12501349.140 9508405.527 10 0 59593 37800.00000 0 -20952162.187 13013791.617 6494948.856 10 0 59593 38700.00000 0 -21429554.590 13416577.151 3355282.447 10 0 59593 39600.00000 0 -21539999.496 13654626.299 150409.267 10 0 59593 40500.00000 0 -21306738.315 13677594.301 -3057383.881 10 0 59593 41400.00000 0 -20764386.361 13442205.424 -6205740.914 10 0 59593 42300.00000 0 -19957346.108 12914301.422 -9233453.300 10 0 59593 43200.00000 0 -18937825.701 12070516.385 -12081654.863 10 0 59593 44100.00000 0 -17763546.836 10899506.050 -14694970.712 10 0 59593 45000.00000 0 -16495239.261 9402678.515 -17022597.331 10 0 59593 45900.00000 0 -15194027.995 7594394.377 -19019292.520 10 0 59593 46800.00000 0 -13918823.742 5501626.729 -20646255.825 10 0 59593 47700.00000 0 -12723826.575 3163094.221 -21871882.334 10 0 59593 48600.00000 0 -11656247.948 627902.527 -22672375.482 10 0 59593 49500.00000 0 -10754346.564 -2046249.989 -23032207.295 10 0 59593 50400.00000 0 -10045860.317 -4795228.237 -22944417.499 10 0 59593 51300.00000 0 -9546899.598 -7550889.006 -22410746.062 10 0 59593 52200.00000 0 -9261347.797 -10243681.809 -21441596.898 10 0 59593 53100.00000 0 -9180793.498 -12805314.358 -20055833.548 10 0 59593 54000.00000 0 -9284996.481 -15171372.492 -18280410.916 10 0 59593 54900.00000 0 -9542867.236 -17283786.187 -16149850.063 10 0 59593 55800.00000 0 -9913918.114 -19093039.538 -13705566.215 10 0 59593 56700.00000 0 -10350124.380 -20560033.369 -10995062.860 10 0 59593 57600.00000 0 -10798116.169 -21657523.439 -8071007.459 10 0 59593 58500.00000 0 -11201608.329 -22371074.955 -4990206.803 10 0 59593 59400.00000 0 -11503965.085 -22699494.317 -1812501.988 10 0 59593 60300.00000 0 -11650790.692 -22654720.968 1400395.363 10 0 59593 61200.00000 0 -11592436.181 -22261184.798 4586102.637 10 0 59593 62100.00000 0 -11286315.799 -21554657.075 7682777.970 10 0 59593 63000.00000 0 -10698934.838 -20580644.045 10630320.406 10 0 59593 63900.00000 0 -9807542.774 -19392391.473 13371534.917 10 0 59593 64800.00000 0 -8601341.463 -18048584.573 15853239.733 10 0 59593 65700.00000 0 -7082196.827 -16610840.291 18027294.648 10 0 59593 66600.00000 0 -5264823.387 -15141097.370 19851530.684 10 0 59593 67500.00000 0 -3176432.947 -13699013.566 21290563.619 10 0 59593 68400.00000 0 -855861.025 -12339478.742 22316476.225 10 0 59593 69300.00000 0 1647793.658 -11110347.565 22909356.564 10 0 59593 70200.00000 0 4276961.239 -10050486.057 23057682.480 10 0 59593 71100.00000 0 6967751.135 -9188213.074 22758545.193 10 0 59593 72000.00000 0 9652372.706 -8540201.358 22017707.795 10 0 59593 72900.00000 0 12261726.895 -8110883.565 20849497.389 10 0 59593 73800.00000 0 14728062.360 -7892387.760 19276532.582 10 0 59593 74700.00000 0 16987586.605 -7865004.793 17329290.995 10 0 59593 75600.00000 0 18982924.315 -7998167.809 15045524.452 10 0 59593 76500.00000 0 20665321.063 -8251902.621 12469532.335 10 0 59593 77400.00000 0 21996500.771 -8578687.888 9651306.548 10 0 59593 78300.00000 0 22950099.523 -8925646.561 6645564.044 10 0 59593 79200.00000 0 23512615.810 -9236975.913 3510685.359 10 0 59593 80100.00000 0 23683837.364 -9456513.093 307579.737 10 0 59593 81000.00000 0 23476726.724 -9530327.167 -2901500.936 10 0 59593 81900.00000 0 22916770.471 -9409227.167 -6054175.934 10 0 59593 82800.00000 0 22040819.735 -9051079.139 -9089152.950 10 0 59593 83700.00000 0 20895471.111 -8422833.050 -11947424.527 10 0 59593 84600.00000 0 19535056.585 -7502172.696 -14573419.760 10 0 59593 85500.00000 0 18019327.569 -6278717.740 -16916088.261 10 0 59594 0.00000 0 16410931.095 -4754726.084 -18929894.823 10 0 59594 900.00000 0 14772783.798 -2945264.930 -20575706.312 10 0 59594 1800.00000 0 13165456.458 -877844.300 -21821550.932 10 0 59594 2700.00000 0 11644676.061 1408475.404 -22643238.955 10 0 59594 3600.00000 0 10259052.145 3864463.531 -23024830.428 10 0 59594 4500.00000 0 9048121.529 6432530.962 -22958942.282 10 0 59594 5400.00000 0 8040792.892 9048898.682 -22446889.075 10 0 59594 6300.00000 0 7254255.589 11646033.568 -21498654.907 10 0 59594 7200.00000 0 6693397.561 14155250.537 -20132697.236 10 0 59594 8100.00000 0 6350755.758 16509373.355 -18375586.453 10 0 59594 9000.00000 0 6207000.091 18645343.895 -16261488.142 10 0 59594 9900.00000 0 6231929.654 20506671.546 -13831497.961 10 0 59594 10800.00000 0 6385938.291 22045621.207 -11132841.955 10 0 59594 11700.00000 0 6621886.921 23225049.031 -8217957.674 10 0 59594 12600.00000 0 6887302.849 24019809.702 -5143474.003 10 0 59594 13500.00000 0 7126812.522 24417677.013 -1969109.608 10 0 59594 14400.00000 0 7284704.265 24419739.817 1243488.449 10 0 59594 15300.00000 0 7307512.132 24040257.460 4431942.993 10 0 59594 16200.00000 0 7146511.074 23305981.498 7534358.390 10 0 59594 17100.00000 0 6760017.474 22254972.885 10490521.788 10 0 59594 18000.00000 0 6115397.366 20934964.924 13243070.370 10 0 59594 18900.00000 0 5190697.058 19401341.221 15738602.006 10 0 59594 19800.00000 0 3975826.807 17714813.772 17928707.911 10 0 59594 20700.00000 0 2473247.066 15938898.690 19770907.567 10 0 59594 21600.00000 0 698127.581 14137295.187 21229468.329 10 0 59594 22500.00000 0 -1322028.361 12371277.116 22276094.423 10 0 59594 23400.00000 0 -3548279.936 10697205.685 22890472.534 10 0 59594 24300.00000 0 -5931628.975 9164266.530 23060664.017 10 0 59594 25200.00000 0 -8414828.192 7812524.880 22783336.461 10 0 59594 26100.00000 0 -10934543.499 6671379.266 22063830.284 10 0 59594 27000.00000 0 -13423781.821 5758477.542 20916058.975 10 0 59594 27900.00000 0 -15814484.683 5079139.844 19362244.516 10 0 59594 28800.00000 0 -18040180.605 4626312.057 17432492.546 10 0 59594 29700.00000 0 -20038586.769 4381051.242 15164214.773 10 0 59594 30600.00000 0 -21754052.066 4313522.267 12601408.977 10 0 59594 31500.00000 0 -23139739.831 4384463.464 9793809.929 10 0 59594 32400.00000 0 -24159459.179 4547059.247 6795927.042 10 0 59594 33300.00000 0 -24789068.165 4749140.367 3665987.066 10 0 59594 34200.00000 0 -25017389.770 4935618.431 464802.324 10 0 59594 35100.00000 0 -24846602.050 5051051.149 -2745413.362 10 0 59594 36000.00000 0 -24292085.887 5042229.009 -5902257.684 10 0 59594 36900.00000 0 -23381736.679 4860673.000 -8944357.502 10 0 59594 37800.00000 0 -22154768.976 4464936.662 -11812566.870 10 0 59594 38700.00000 0 -20660064.513 3822613.919 -14451121.472 10 0 59594 39600.00000 0 -18954133.421 2911966.697 -16808726.416 10 0 59594 40500.00000 0 -17098774.600 1723102.419 -18839555.876 10 0 59594 41400.00000 0 -15158533.775 258650.552 -20504145.014 10 0 59594 42300.00000 0 -13198066.131 -1466091.381 -21770156.823 10 0 59594 43200.00000 0 -11279514.077 -3423549.545 -22613009.246 10 0 59594 44100.00000 0 -9460009.774 -5574787.956 -23016350.735 10 0 59594 45000.00000 0 -7789406.604 -7870907.692 -22972375.370 10 0 59594 45900.00000 0 -6308333.806 -10254873.583 -22481971.820 10 0 59594 46800.00000 0 -5046654.829 -12663692.952 -21554703.523 10 0 59594 47700.00000 0 -4022392.887 -15030856.149 -20208620.659 10 0 59594 48600.00000 0 -3241167.566 -17288937.742 -18469907.622 10 0 59594 49500.00000 0 -2696164.823 -19372250.454 -16372372.772 10 0 59594 50400.00000 0 -2368640.440 -21219441.469 -13956790.262 10 0 59594 51300.00000 0 -2228934.535 -22775923.175 -11270106.610 10 0 59594 52200.00000 0 -2237953.253 -23996037.101 -8364527.252 10 0 59594 53100.00000 0 -2349054.211 -24844860.858 -5296500.916 10 0 59594 54000.00000 0 -2510255.102 -25299582.795 -2125621.550 10 0 59594 54900.00000 0 -2666671.389 -25350387.181 1086530.655 10 0 59594 55800.00000 0 -2763079.301 -25000813.159 4277586.288 10 0 59594 56700.00000 0 -2746495.124 -24267572.957 7385598.298 10 0 59594 57600.00000 0 -2568661.168 -23179837.386 10350244.294 10 0 59594 58500.00000 0 -2188332.842 -21778019.117 13113996.022 10 0 59594 59400.00000 0 -1573269.782 -20112105.099 15623233.287 10 0 59594 60300.00000 0 -701846.479 -18239608.259 17829280.912 10 0 59594 61200.00000 0 435785.978 -16223224.344 19689348.859 10 0 59594 62100.00000 0 1837036.636 -14128291.787 21167357.850 10 0 59594 63000.00000 0 3486738.609 -12020160.349 22234635.063 10 0 59594 63900.00000 0 5357546.902 -9961577.919 22870466.989 10 0 59594 64800.00000 0 7410854.706 -8010203.688 23062499.330 10 0 59594 65700.00000 0 9598191.218 -6216350.538 22806976.533 10 0 59594 66600.00000 0 11863044.003 -4621049.856 22108816.506 10 0 59594 67500.00000 0 14143031.329 -3254518.531 20981518.958 10 0 59594 68400.00000 0 16372335.251 -2135091.155 19446908.778 10 0 59594 69300.00000 0 18484295.118 -1268661.287 17534718.852 10 0 59594 70200.00000 0 20414054.267 -648654.379 15282019.696 10 0 59594 71100.00000 0 22101150.104 -256532.900 12732506.111 10 0 59594 72000.00000 0 23491939.610 -62811.907 9935654.027 10 0 59594 72900.00000 0 24541758.922 -28541.882 6945763.276 10 0 59594 73800.00000 0 25216726.336 -107195.790 3820904.462 10 0 59594 74700.00000 0 25495112.742 -246880.251 621790.349 10 0 59594 75600.00000 0 25368221.556 -392776.690 -2589406.167 10 0 59594 76500.00000 0 24840740.726 -489708.474 -5750264.178 10 0 59594 77400.00000 0 23930551.643 -484724.530 -8799332.716 10 0 59594 78300.00000 0 22668002.743 -329589.127 -11677330.270 10 0 59594 79200.00000 0 21094678.200 16928.626 -14328301.879 10 0 59594 80100.00000 0 19261713.494 587063.421 -16700710.695 10 0 59594 81000.00000 0 17227728.643 1402445.785 -18748442.419 10 0 59594 81900.00000 0 15056465.938 2472946.454 -20431702.942 10 0 59594 82800.00000 0 12814231.270 3796022.789 -21717791.686 10 0 59594 83700.00000 0 10567246.160 5356595.751 -22581735.868 10 0 59594 84600.00000 0 8379021.007 7127463.595 -23006773.704 10 0 59594 85500.00000 0 6307859.014 9070235.766 -22984677.512 99